HAVELSAT (42700 NORAD) Tracking and Keplerian Element Data

This shows tracking and keplerian element data for the satellite.

Feedback or suggestion? Click here.




ElementValue
Catalog42700
NameHAVELSAT
Epoch Orbit6680
Epoch Day198.59814153
Epoch Year2018
RAAN199.0638
Inclination51.6338
Eccentricity0.0005097
Argument of Perigee17.7785
Mean Anonmoly342.3391
Mean Motion15.72758124
Decay Rate0.00028288
L11 42700U 98067LH 18198.59814153 .00028288 00000-0 20873-3 0 9997
L22 42700 51.6338 199.0638 0005097 17.7785 342.3391 15.72758124 66800

Live tracking and technical data element details for HAVELSAT (NORAD 42700). HAVELSAT can be tracked NOW for your location showing map with azimuth and elevation plus other details from your city location.

Track the satellite on the map from your city or location and see movement details for azimuth, elevation, latitude, longitude, range, height, and movement on the map or in text.







IsCatalogInMostPopularTable: catalog: 42700, numindb: 95
Update: records affected: 1



GetName: 42700 HAVELSAT

Hit Count: updated at: Thu, 19 Jul 2018 03:56:17 GMT